Levittown, PR

10:49 AM AST on February 12, 2016 (GMT -0400)
KP4MP DAVIS | | Change Station
CLOSE
Current Station
Personal Weather Station
Location: Sabana Seca, TOA BAJA
Elevation: 17 ft
Nearby Weather Stations
Active Advisory: Coastal Hazard Statement

Elev 17 ft 18.44 °N, 66.18 °W | Updated 1 second ago

Scattered Clouds
Scattered Clouds
82.8 °F
Feels Like 87 °F
N
2.9
Wind Variable Wind from East
Gusts 11.0 mph

Today
High -- | Low -- °F
--% Chance of Precip.
Yesterday
High -- | Low -- °F
Precip. -- in
Pressure 30.16 in
Visibility 10.0 miles
Clouds Few 2500 ft
Scattered Clouds 5500 ft
Heat Index 87 °F
Dew Point 71 °F
Humidity 67%
Rainfall 0.11 in
Snow Depth Not available.
6:54 AM 6:23 PM
Waxing Crescent, 21% visible
METAR TJSJ 121356Z VRB05KT 10SM FEW025 SCT055 27/22 A3016 RMK AO2 SLP211 T02670217
Pressure 30.16 in
Visibility 10.0 miles
Clouds Few 2500 ft
Scattered Clouds 5500 ft
Heat Index 87 °F
Dew Point 71 °F
Humidity 67%
Rainfall 0.11 in
Snow Depth Not available.
6:54 AM 6:23 PM
Waxing Crescent, 21% visible
METAR TJSJ 121356Z VRB05KT 10SM FEW025 SCT055 27/22 A3016 RMK AO2 SLP211 T02670217

10-Day Weather Forecast

Almanac

Astronomy

Feb. 12, 2016 Rise Set
Actual Time
Civil Twilight
Nautical Twilight
Astronomical Twilight
Moon
Length of Visible Light
Length of Day
Tomorrow will be .
, % of the Moon is Illuminated

Today's Extremes

State Highs State Lows

Community

WunderPhotos

Upload Photos

1,892,318 photos uploaded!

WunderBlog® & News

Nearby

Air Quality

  Air Quality AQ Index Pollutant
Not available.

Snow Depth

Station Depth Elevation

Earthquake Activity

City Distance Mag. Time & Date
Minimum magnitude displayed is 2.5.

Coastal Water Temperatures

Place Temperature

Stations

Nearby Weather Stations

Station Location Temp. Windchill Dew Point Humidity Wind Precip. Elev Updated Type
                   

Watches & Warnings

Coastal Hazard Statement
Issued: 5:48 AM AST Feb. 12, 2016 – National Weather Service

... High rip current risk remains in effect through late tonight...

* location... north facing beaches of Puerto Rico and Culebra.

* Timing... through late tonight.

* Impacts... large breaking waves will create strong rip currents.

Precautionary/preparedness actions...

There is a high risk of rip currents.

Rip currents are powerful channels of water flowing quickly away
from shore... which occur most often at low spots or breaks in The
Sandbar and in the vicinity of structures such as groins...
jetties and piers. Heed the advice of lifeguards... beach patrol
flags and signs.

If you become caught in a rip current... Yell for help. Remain
calm... do not exhaust yourself and stay afloat while waiting for
help. If you have to swim out of a rip current... swim parallel to
shore and back toward the beach when possible. Do not attempt to
swim directly against a rip current as you will tire quickly.